Find Starlink 3950

NORAD ID: 53264 Int'l Des: 2022-086 Owner: SPXS Country: US Constellation: starlink operational
LEOCIRCULAR

Live Position

Loading 3D Globe...

About Starlink 3950

Description loading...

Upcoming Passes

Passes for default location (London). Set your location on the main map for personalized predictions.

Altitude History

Loading altitude history...

Two-Line Element Set

1 53264U 22086Y 26106.76087303 -.00000171 00000-0 73348-5 0 9997
2 53264 53.2186 23.2121 0001328 95.4308 264.6835 15.08837632206815
Epoch: Apr 16, 2026 • Age: 15 hours

Current Status

Altitude 559.2 km
Velocity 7.58 km/s
Sub-Earth Point -53.34°S, 64.13°W
Launch Date Jul 24, 2022
Age 3.7 years
Type internet

Technical Details

Classification Payload
Mass 297.00 kg
Dry Mass 275.00 kg
Total Mass 297.00 kg
Length 0.20 m
Diameter 2.80 m
Span 9.00 m
Shape Box + pan
Manufacturer SPXS
Bus Type Starlink
Phase Status In Orbit
Owner/State SPXS/US

Most Searched